| time (UTC) | temp C | wind direction | speed KPH | gust KPH | rain 1hr cm | rain 24hr cm | rain mn cm | humidity % | barometer mb |
| 20260504213250 | 14 | 202 | 8.0 | 17.7 | 0.00 | 0.00 | 0.00 | 74 | 1011.4 |
| 20260504212744 | 14 | 234 | 8.0 | 17.7 | 0.00 | 0.00 | 0.00 | 74 | 1011.3 |
| 20260504212238 | 14 | 231 | 8.0 | 20.9 | 0.00 | 0.00 | 0.00 | 73 | 1011.2 |
| 20260504211734 | 14 | 236 | 6.4 | 25.7 | 0.00 | 0.00 | 0.00 | 73 | 1011.3 |
| 20260504211729 | 14 | 238 | 6.4 | 25.7 | 0.00 | 0.00 | 0.00 | 73 | 1011.2 |
| 20260504210721 | 15 | 178 | 8.0 | 19.3 | 0.00 | 0.00 | 0.00 | 72 | 1011.2 |
| 20260504210215 | 15 | 252 | 8.0 | 19.3 | 0.00 | 0.00 | 0.00 | 72 | 1011.2 |
| 20260504205709 | 15 | 209 | 8.0 | 19.3 | 0.00 | 0.00 | 0.00 | 71 | 1011.2 |
| 20260504205434 | 15 | 240 | 8.0 | 20.9 | 0.00 | 0.00 | 0.00 | 71 | 1011.2 |
| 20260504204703 | 15 | 277 | 9.7 | 20.9 | 0.00 | 0.00 | 0.00 | 70 | 1011.1 |
| 20260504204203 | 15 | 182 | 8.0 | 25.7 | 0.00 | 0.00 | 0.00 | 70 | 1011.2 |
| 20260504203703 | 15 | 215 | 8.0 | 25.7 | 0.00 | 0.00 | 0.00 | 70 | 1011.2 |
| 20260504203203 | 15 | 222 | 8.0 | 24.1 | 0.00 | 0.00 | 0.00 | 69 | 1011.2 |
| 20260504202701 | 15 | 252 | 9.7 | 24.1 | 0.00 | 0.00 | 0.00 | 69 | 1011.3 |
| 20260504202202 | 15 | 190 | 11.3 | 32.2 | 0.00 | 0.00 | 0.00 | 68 | 1011.3 |
| 20260504201700 | 16 | 146 | 9.7 | 32.2 | 0.00 | 0.00 | 0.00 | 67 | 1011.2 |
| 20260504201159 | 16 | 236 | 6.4 | 24.1 | 0.00 | 0.00 | 0.00 | 68 | 1011.3 |
| 20260504200705 | 16 | 212 | 11.3 | 25.7 | 0.00 | 0.00 | 0.00 | 68 | 1011.3 |
| 20260504200700 | 16 | 232 | 8.0 | 24.1 | 0.00 | 0.00 | 0.00 | 68 | 1011.2 |
| 20260504195657 | 16 | 162 | 11.3 | 25.7 | 0.00 | 0.00 | 0.00 | 67 | 1011.4 |
| 20260504195157 | 16 | 215 | 9.7 | 25.7 | 0.00 | 0.00 | 0.00 | 68 | 1011.5 |
| 20260504194657 | 16 | 160 | 9.7 | 27.4 | 0.00 | 0.00 | 0.00 | 67 | 1011.5 |
| 20260504194428 | 16 | 234 | 9.7 | 27.4 | 0.00 | 0.00 | 0.00 | 68 | 1011.5 |
| 20260504193657 | 16 | 171 | 9.7 | 24.1 | 0.00 | 0.00 | 0.00 | 68 | 1011.6 |
| 20260504193159 | 16 | 229 | 9.7 | 29.0 | 0.00 | 0.00 | 0.00 | 66 | 1011.7 |
| 20260504192700 | 16 | 234 | 8.0 | 29.0 | 0.00 | 0.00 | 0.00 | 67 | 1011.6 |
| 20260504192153 | 16 | 242 | 11.3 | 27.4 | 0.00 | 0.00 | 0.00 | 66 | 1011.6 |
| 20260504191648 | 16 | 288 | 9.7 | 27.4 | 0.00 | 0.00 | 0.00 | 67 | 1011.7 |
| 20260504191142 | 16 | 241 | 9.7 | 24.1 | 0.00 | 0.00 | 0.00 | 66 | 1011.7 |
| 20260504190636 | 16 | 204 | 8.0 | 24.1 | 0.00 | 0.00 | 0.00 | 65 | 1011.8 |
| 20260504190134 | 16 | 201 | 9.7 | 30.6 | 0.00 | 0.00 | 0.00 | 65 | 1011.9 |
| 20260504185634 | 16 | 180 | 9.7 | 32.2 | 0.00 | 0.00 | 0.00 | 66 | 1011.9 |
| 20260504185135 | 16 | 198 | 9.7 | 32.2 | 0.00 | 0.00 | 0.00 | 67 | 1012.0 |
| 20260504184635 | 16 | 213 | 9.7 | 25.7 | 0.00 | 0.00 | 0.00 | 66 | 1012.1 |
| 20260504184134 | 16 | 249 | 9.7 | 25.7 | 0.00 | 0.00 | 0.00 | 66 | 1012.1 |
| 20260504183635 | 16 | 193 | 9.7 | 25.7 | 0.00 | 0.00 | 0.00 | 66 | 1012.2 |
| 20260504183409 | 17 | 219 | 8.0 | 22.5 | 0.00 | 0.00 | 0.00 | 65 | 1012.2 |
| 20260504183133 | 16 | 225 | 8.0 | 25.7 | 0.00 | 0.00 | 0.00 | 65 | 1012.2 |
| 20260504182134 | 17 | 195 | 8.0 | 20.9 | 0.00 | 0.00 | 0.00 | 64 | 1012.2 |
| 20260504181634 | 17 | 204 | 8.0 | 41.8 | 0.00 | 0.00 | 0.00 | 65 | 1012.3 |
| 20260504181133 | 17 | 209 | 8.0 | 41.8 | 0.00 | 0.00 | 0.00 | 65 | 1012.3 |
| 20260504180634 | 16 | 257 | 9.7 | 24.1 | 0.00 | 0.00 | 0.00 | 65 | 1012.4 |
| 20260504180134 | 16 | 153 | 9.7 | 29.0 | 0.00 | 0.00 | 0.00 | 66 | 1012.4 |
| 20260504175635 | 17 | 223 | 9.7 | 29.0 | 0.00 | 0.00 | 0.00 | 65 | 1012.4 |
| 20260504175135 | 17 | 238 | 9.7 | 27.4 | 0.00 | 0.00 | 0.00 | 65 | 1012.4 |
| 20260504174636 | 17 | 265 | 9.7 | 27.4 | 0.00 | 0.00 | 0.00 | 66 | 1012.4 |
| 20260504174130 | 17 | 217 | 8.0 | 27.4 | 0.00 | 0.00 | 0.00 | 65 | 1012.5 |
| 20260504173624 | 17 | 223 | 8.0 | 24.1 | 0.00 | 0.00 | 0.00 | 65 | 1012.5 |
| 20260504173349 | 16 | 234 | 9.7 | 25.7 | 0.00 | 0.00 | 0.00 | 68 | 1012.6 |
| 20260504172612 | 16 | 224 | 9.7 | 25.7 | 0.00 | 0.00 | 0.00 | 66 | 1012.7 |
| 20260504172106 | 16 | 212 | 8.0 | 30.6 | 0.00 | 0.00 | 0.00 | 67 | 1012.7 |
| 20260504171600 | 16 | 210 | 8.0 | 30.6 | 0.00 | 0.00 | 0.00 | 67 | 1012.8 |
| 20260504171054 | 16 | 209 | 9.7 | 24.1 | 0.00 | 0.00 | 0.00 | 69 | 1013.0 |
| 20260504170819 | 16 | 223 | 8.0 | 24.1 | 0.00 | 0.00 | 0.00 | 66 | 1013.1 |
| 20260504160436 | 17 | 225 | 8.0 | 25.7 | 0.00 | 0.00 | 0.00 | 62 | 1013.5 |
| 20260504151101 | 17 | 221 | 6.4 | 17.7 | 0.00 | 0.00 | 0.00 | 54 | 1014.0 |
| 20260504150324 | 18 | 238 | 6.4 | 16.1 | 0.00 | 0.00 | 0.00 | 55 | 1014.0 |
| 20260504141224 | 16 | 236 | 6.4 | 17.7 | 0.00 | 0.00 | 0.00 | 58 | 1014.1 |
| 20260504140718 | 17 | 291 | 6.4 | 17.7 | 0.00 | 0.00 | 0.00 | 58 | 1014.1 |
| 20260504140442 | 16 | 193 | 8.0 | 17.7 | 0.00 | 0.00 | 0.00 | 59 | 1014.2 |
| 20260504130605 | 15 | 237 | 6.4 | 22.5 | 0.00 | 0.00 | 0.00 | 62 | 1014.6 |
| 20260504110520 | 9 | 207 | 3.2 | 9.7 | 0.00 | 0.00 | 0.00 | 76 | 1014.7 |
| 20260504100408 | 8 | 271 | 3.2 | 9.7 | 0.00 | 0.00 | 0.00 | 74 | 1014.4 |
| 20260504081549 | 7 | 244 | 3.2 | 6.4 | 0.00 | 0.00 | 0.00 | 71 | 1013.8 |
| 20260504081049 | 7 | 248 | 3.2 | 6.4 | 0.00 | 0.00 | 0.00 | 70 | 1013.8 |
| 20260504080319 | 7 | 255 | 3.2 | 6.4 | 0.00 | 0.00 | 0.00 | 70 | 1013.8 |
| 20260504060240 | 8 | 234 | 3.2 | 8.0 | 0.00 | 0.00 | 0.00 | 75 | 1013.2 |
| 20260504050700 | 7 | 273 | 3.2 | 9.7 | 0.00 | 0.00 | 0.00 | 75 | 1012.9 |
| 20260504050200 | 6 | 274 | 1.6 | 9.7 | 0.00 | 0.00 | 0.00 | 74 | 1012.9 |
| 20260504045930 | 6 | 262 | 1.6 | 9.7 | 0.00 | 0.00 | 0.00 | 74 | 1013.0 |
| 20260504045158 | 6 | 263 | 1.6 | 4.8 | 0.00 | 0.00 | 0.00 | 74 | 1012.9 |
| 20260504044658 | 6 | 265 | 1.6 | 6.4 | 0.00 | 0.00 | 0.00 | 73 | 1013.0 |
| 20260504044155 | 6 | 265 | 1.6 | 12.9 | 0.00 | 0.00 | 0.00 | 73 | 1013.1 |
| 20260504043657 | 6 | 264 | 1.6 | 12.9 | 0.00 | 0.00 | 0.00 | 72 | 1013.0 |
| 20260504043427 | 6 | 237 | 1.6 | 4.8 | 0.00 | 0.00 | 0.00 | 72 | 1013.1 |
| 20260504042657 | 6 | 237 | 1.6 | 4.8 | 0.00 | 0.00 | 0.00 | 72 | 1013.1 |
| 20260504042157 | 6 | 237 | 1.6 | 4.8 | 0.00 | 0.00 | 0.00 | 71 | 1013.0 |
| 20260504041925 | 6 | 236 | 0.0 | 3.2 | 0.00 | 0.00 | 0.00 | 70 | 1012.9 |
| 20260504041425 | 6 | 236 | 0.0 | 3.2 | 0.00 | 0.00 | 0.00 | 70 | 1012.9 |
| 20260504040651 | 6 | 236 | 0.0 | 0.0 | 0.00 | 0.00 | 0.00 | 69 | 1012.9 |
| 20260504040148 | 6 | 236 | 0.0 | 1.6 | 0.00 | 0.00 | 0.00 | 68 | 1012.9 |
| 20260504035649 | 6 | 236 | 0.0 | 1.6 | 0.00 | 0.00 | 0.00 | 68 | 1012.9 |
| 20260504035143 | 6 | 235 | 0.0 | 3.2 | 0.00 | 0.00 | 0.00 | 68 | 1012.9 |
| 20260504034636 | 6 | 235 | 0.0 | 4.8 | 0.00 | 0.00 | 0.00 | 67 | 1012.8 |
| 20260504034131 | 6 | 235 | 0.0 | 4.8 | 0.00 | 0.00 | 0.00 | 66 | 1012.8 |
| 20260504033625 | 6 | 235 | 0.0 | 1.6 | 0.00 | 0.00 | 0.00 | 65 | 1012.8 |
| 20260504033118 | 6 | 235 | 0.0 | 1.6 | 0.00 | 0.00 | 0.00 | 65 | 1012.8 |
| 20260504032843 | 6 | 235 | 0.0 | 1.6 | 0.00 | 0.00 | 0.00 | 63 | 1012.7 |
| 20260504032338 | 6 | 235 | 0.0 | 1.6 | 0.00 | 0.00 | 0.00 | 61 | 1012.8 |
| 20260504031601 | 6 | 235 | 0.0 | 1.6 | 0.00 | 0.00 | 0.00 | 61 | 1012.7 |
| 20260504031054 | 6 | 235 | 0.0 | 1.6 | 0.00 | 0.00 | 0.00 | 59 | 1012.7 |
| 20260504030819 | 6 | 235 | 0.0 | 1.6 | 0.00 | 0.00 | 0.00 | 58 | 1012.7 |
| 20260504030043 | 6 | 235 | 0.0 | 1.6 | 0.00 | 0.00 | 0.00 | 55 | 1012.7 |
| 20260504025537 | 7 | 235 | 0.0 | 1.6 | 0.00 | 0.00 | 0.00 | 54 | 1012.6 |
| 20260504025030 | 7 | 235 | 0.0 | 1.6 | 0.00 | 0.00 | 0.00 | 53 | 1012.7 |
| 20260504024757 | 7 | 235 | 0.0 | 0.0 | 0.00 | 0.00 | 0.00 | 52 | 1012.7 |
| 20260504024018 | 7 | 235 | 0.0 | 1.6 | 0.00 | 0.00 | 0.00 | 51 | 1012.8 |
| 20260504023512 | 7 | 235 | 0.0 | 1.6 | 0.00 | 0.00 | 0.00 | 50 | 1012.7 |
| 20260504023006 | 7 | 235 | 0.0 | 0.0 | 0.00 | 0.00 | 0.00 | 49 | 1012.7 |
| 20260504022501 | 7 | 235 | 0.0 | 0.0 | 0.00 | 0.00 | 0.00 | 49 | 1012.7 |
| 20260504021954 | 7 | 235 | 0.0 | 0.0 | 0.00 | 0.00 | 0.00 | 49 | 1012.6 |
| 20260504021720 | 7 | 235 | 0.0 | 0.0 | 0.00 | 0.00 | 0.00 | 48 | 1012.5 |
| 20260504020942 | 8 | 235 | 0.0 | 0.0 | 0.00 | 0.00 | 0.00 | 48 | 1012.6 |
| 20260504020437 | 8 | 235 | 0.0 | 0.0 | 0.00 | 0.00 | 0.00 | 48 | 1012.5 |
| 20260504020158 | 8 | 235 | 0.0 | 0.0 | 0.00 | 0.00 | 0.00 | 47 | 1012.5 |
| 20260504020032 | 8 | 235 | 0.0 | 0.0 | 0.00 | 0.00 | 0.00 | 47 | 1012.6 |
| 20260504014919 | 8 | 235 | 0.0 | 0.0 | 0.00 | 0.00 | 0.00 | 46 | 1012.5 |
| 20260504014412 | 8 | 235 | 0.0 | 0.0 | 0.00 | 0.00 | 0.00 | 46 | 1012.5 |
| 20260504013906 | 9 | 235 | 0.0 | 0.0 | 0.00 | 0.00 | 0.00 | 45 | 1012.4 |
| 20260504013401 | 9 | 235 | 0.0 | 0.0 | 0.00 | 0.00 | 0.00 | 45 | 1012.4 |
| 20260504012854 | 9 | 235 | 0.0 | 0.0 | 0.00 | 0.00 | 0.00 | 44 | 1012.4 |
| 20260504012349 | 10 | 235 | 0.0 | 0.0 | 0.00 | 0.00 | 0.00 | 44 | 1012.3 |
| 20260504012113 | 10 | 235 | 0.0 | 0.0 | 0.00 | 0.00 | 0.00 | 44 | 1012.2 |
| 20260504011337 | 10 | 235 | 0.0 | 0.0 | 0.00 | 0.00 | 0.00 | 44 | 1012.2 |
| 20260504010831 | 10 | 235 | 0.0 | 0.0 | 0.00 | 0.00 | 0.00 | 43 | 1012.1 |
| 20260504010556 | 10 | 235 | 0.0 | 0.0 | 0.00 | 0.00 | 0.00 | 41 | 1012.0 |
| 20260504005818 | 10 | 235 | 0.0 | 0.0 | 0.00 | 0.00 | 0.00 | 40 | 1012.0 |
| 20260504005313 | 10 | 235 | 0.0 | 0.0 | 0.00 | 0.00 | 0.00 | 39 | 1011.9 |
| 20260504004807 | 11 | 235 | 0.0 | 0.0 | 0.00 | 0.00 | 0.00 | 39 | 1011.8 |
| 20260504004300 | 11 | 235 | 0.0 | 0.0 | 0.00 | 0.00 | 0.00 | 38 | 1011.8 |
| 20260504003755 | 11 | 235 | 0.0 | 0.0 | 0.00 | 0.00 | 0.00 | 38 | 1011.7 |
| 20260504003520 | 11 | 235 | 0.0 | 0.0 | 0.00 | 0.00 | 0.00 | 38 | 1011.6 |
| 20260504002744 | 11 | 235 | 0.0 | 0.0 | 0.00 | 0.00 | 0.00 | 38 | 1011.5 |
| 20260504002739 | 11 | 235 | 0.0 | 0.0 | 0.00 | 0.00 | 0.00 | 37 | 1011.5 |
| 20260504001731 | 12 | 235 | 0.0 | 1.6 | 0.00 | 0.00 | 0.00 | 37 | 1011.4 |
| 20260504001225 | 12 | 235 | 1.6 | 1.6 | 0.00 | 0.00 | 0.00 | 37 | 1011.4 |
| 20260504000718 | 12 | 235 | 1.6 | 6.4 | 0.00 | 0.00 | 0.00 | 37 | 1011.2 |
| 20260504000443 | 12 | 235 | 1.6 | 6.4 | 0.00 | 0.00 | 0.00 | 37 | 1011.2 |
| 20260503235938 | 12 | 234 | 1.6 | 4.8 | 0.00 | 0.00 | 0.00 | 36 | 1011.1 |
| 20260503235201 | 13 | 234 | 1.6 | 4.8 | 0.00 | 0.00 | 0.00 | 36 | 1011.1 |
| 20260503234655 | 13 | 234 | 1.6 | 4.8 | 0.00 | 0.00 | 0.00 | 35 | 1011.0 |
| 20260503234149 | 13 | 234 | 1.6 | 6.4 | 0.00 | 0.00 | 0.00 | 36 | 1010.9 |
| 20260503233642 | 13 | 232 | 3.2 | 6.4 | 0.00 | 0.00 | 0.00 | 35 | 1010.9 |
| 20260503233133 | 13 | 227 | 3.2 | 8.0 | 0.00 | 0.00 | 0.00 | 33 | 1010.8 |
| 20260503232629 | 13 | 226 | 3.2 | 17.7 | 0.00 | 0.00 | 0.00 | 32 | 1010.7 |
| 20260503232403 | 13 | 254 | 3.2 | 17.7 | 0.00 | 0.00 | 0.00 | 33 | 1010.7 |
| 20260503231900 | 13 | 243 | 3.2 | 8.0 | 0.00 | 0.00 | 0.00 | 34 | 1010.7 |
| 20260503231125 | 14 | 266 | 3.2 | 12.9 | 0.00 | 0.00 | 0.00 | 34 | 1010.7 |
| 20260503230625 | 14 | 269 | 3.2 | 12.9 | 0.00 | 0.00 | 0.00 | 33 | 1010.7 |
| 20260503230126 | 14 | 243 | 3.2 | 14.5 | 0.00 | 0.00 | 0.00 | 32 | 1010.5 |
| 20260503225627 | 14 | 240 | 4.8 | 14.5 | 0.00 | 0.00 | 0.00 | 31 | 1010.6 |
| 20260503225356 | 14 | 302 | 4.8 | 14.5 | 0.00 | 0.00 | 0.00 | 30 | 1010.5 |
| 20260503224626 | 14 | 259 | 4.8 | 16.1 | 0.00 | 0.00 | 0.00 | 30 | 1010.5 |
| 20260503224126 | 14 | 277 | 4.8 | 16.1 | 0.00 | 0.00 | 0.00 | 31 | 1010.4 |
| 20260503223627 | 14 | 279 | 4.8 | 16.1 | 0.00 | 0.00 | 0.00 | 32 | 1010.5 |
| 20260503223125 | 14 | 265 | 3.2 | 12.9 | 0.00 | 0.00 | 0.00 | 32 | 1010.4 |
| 20260503222624 | 14 | 277 | 3.2 | 9.7 | 0.00 | 0.00 | 0.00 | 32 | 1010.4 |
| 20260503222124 | 14 | 355 | 3.2 | 11.3 | 0.00 | 0.00 | 0.00 | 32 | 1010.3 |
| 20260503221625 | 14 | 331 | 3.2 | 11.3 | 0.00 | 0.00 | 0.00 | 32 | 1010.3 |
| 20260503221122 | 14 | 305 | 3.2 | 8.0 | 0.00 | 0.00 | 0.00 | 31 | 1010.3 |
| 20260503220622 | 14 | 17 | 3.2 | 8.0 | 0.00 | 0.00 | 0.00 | 32 | 1010.3 |
| 20260503220116 | 14 | 21 | 4.8 | 14.5 | 0.00 | 0.00 | 0.00 | 31 | 1010.3 |
| 20260503215611 | 14 | 243 | 4.8 | 14.5 | 0.00 | 0.00 | 0.00 | 31 | 1010.3 |
| 20260503215105 | 14 | 294 | 3.2 | 12.9 | 0.00 | 0.00 | 0.00 | 32 | 1010.3 |
| 20260503214558 | 15 | 339 | 4.8 | 12.9 | 0.00 | 0.00 | 0.00 | 32 | 1010.2 |
| 20260503214053 | 15 | 277 | 4.8 | 14.5 | 0.00 | 0.00 | 0.00 | 32 | 1010.2 |
| 20260503213547 | 15 | 26 | 4.8 | 25.7 | 0.00 | 0.00 | 0.00 | 32 | 1010.2 |